Regional Weather Roundup
Issued by NWS

Home | Current Version | Previous Version | Text Only | Print | Product List | Glossary Off
Versions: 1 2 3 4 5 6 7 8 9 10 11 12 13 14 15 16 17 18 19 20 21 22 23 24 25 26 27 28 29 30 31 32 33 34 35 36 37 38 39 40 41 42 43 44 45 46 47 48 49 50

000
ASUS43 KDMX 151406
RWRIA

WEATHER ROUNDUP FOR IOWA
NATIONAL WEATHER SERVICE DES MOINES IA
800 AM CST FRI DEC 15 2017

NOTE: "FAIR" INDICATES FEW OR NO CLOUDS BELOW 12,000 FEET WITH NO
SIGNIFICANT WEATHER AND/OR OBSTRUCTIONS TO VISIBILITY.

* - THESE STATIONS ARE NOT NWS STATIONS...THUS NOT UNDER NWS
QUALITY CONTROL.  THEY ALSO DO NOT REPORT WEATHER SUCH
AS PRECIPITATION OR FOG.

IAZ001>003-012>014-020>022-031>034-043>046-151500-
   NORTHWEST IOWA

CITY           SKY/WX    TMP DP  RH WIND       PRES   REMARKS
CARROLL *      CLOUDY    32  25  74 W13       29.98F WCI  22
CHEROKEE *     CLOUDY    32  27  81 SW10      29.95F WCI  24
DENISON *      CLOUDY    32  25  74 SW9       30.01S WCI  24
LE MARS *      CLOUDY    32  27  80 SW8       29.95F WCI  25
ORANGE CITY *  CLOUDY    34  30  86 W12       29.92F WCI  25
SHELDON *      CLOUDY    30  28  93 SW10      29.90F WCI  21
SIOUX CITY     MOCLDY    32  25  75 W13       29.98F WCI  22
SPENCER        CLOUDY    31  27  85 W10       29.91F WCI  22
STORM LAKE *   CLOUDY    32  25  74 W14       29.94F WCI  22
$$

IAZ055>058-069>071-079>083-090>094-151500-
   SOUTHWEST IOWA

CITY           SKY/WX    TMP DP  RH WIND       PRES   REMARKS
ATLANTIC *     CLOUDY    32  27  80 SW13      30.03F WCI  22
AUDUBON *      CLOUDY    32  27  80 SW9       30.01S WCI  24
CLARINDA *     CLOUDY    34  27  75 SW10      30.10S WCI  26
COUNCIL BLFS * CLOUDY    32  27  80 W12       30.05S WCI  23
CRESTON *      CLOUDY    32  25  74 W12       30.05S WCI  23
HARLAN  *      CLOUDY    32  27  80 W12       30.06R WCI  23
LAMONI         CLOUDY    31  22  69 SW14      30.05R WCI  21
RED OAK *      CLOUDY    34  27  75 SW12      30.06F WCI  25
SHENANDOAH *   CLOUDY    32  27  80 SW8       30.10S WCI  25
$$

IAZ047>049-059>061-072>074-084-151500-
   CENTRAL IOWA

CITY           SKY/WX    TMP DP  RH WIND       PRES   REMARKS
AMES           CLOUDY    30  26  85 SW14      29.98F WCI  19
ANKENY *       CLOUDY    32  23  69 SW8       30.01F WCI  25
BOONE *        CLOUDY    30  25  80 SW12      29.96F WCI  21
CHARITON *     CLOUDY    30  21  69 W8        30.04S WCI  23
DES MOINES     CLOUDY    31  23  72 SW8       30.01F WCI  23
GRINNELL*      CLOUDY    26  23  89 SW8       30.01F WCI  17
KNOXVILLE *    CLOUDY    28  23  80 SW7       30.02S WCI  21
MARSHALLTOWN   CLOUDY    27  23  85 SW9       29.96F WCI  18
NEWTON *       CLOUDY    27  25  93 SW10      30.00F WCI  17
PELLA *        CLOUDY    29  24  82 W7        30.04S WCI  22
PERRY *        CLOUDY    32  24  74 W15       30.00S WCI  21
$$

IAZ004>006-015-016-023>025-035-036-151500-
   NORTH CENTRAL IOWA

CITY           SKY/WX    TMP DP  RH WIND       PRES   REMARKS
ALGONA *       CLOUDY    30  30 100 W9        29.91F WCI  22
CLARION *      CLOUDY    28  30 100 SW12      29.93F WCI  18
ESTHERVILLE    CLOUDY    30  26  85 W10       29.89F WCI  21
FORT DODGE *   CLOUDY    30  26  85 W13       29.95F WCI  20
MASON CITY     CLOUDY    28  24  85 W13       29.91F WCI  17
FOREST CITY *  CLOUDY    30  28  93 W7        29.90F WCI  23
WEBSTER CITY * CLOUDY    30  25  80 W14       29.93F WCI  20
IOWA FALLS *   CLOUDY    29  25  84 SW12      29.95F WCI  20
$$

IAZ007>011-017>019-026>030-037>042-050>054-066-151500-
   NORTHEAST IOWA

CITY           SKY/WX    TMP DP  RH WIND       PRES   REMARKS
CEDAR RAPIDS   MOCLDY    22  18  85 SW7       29.99S WCI  13
CHARLES CITY * LGT SNOW  27  27 100 SW10      29.92F WCI  17
CLINTON *      CLOUDY    25  20  81 W14       29.99S WCI  13
DECORAH *      FLURRIES  25  21  86 VRB6      29.89F WCI  18
DUBUQUE        CLOUDY    24  19  81 W10       29.94F WCI  14
MONTICELLO *   CLOUDY    27  19  74 W8        29.96F WCI  18
OELWEIN *      FLURRIES  25  25 100 W8        29.94F WCI  16
WATERLOO       CLOUDY    25  20  81 S7        29.95F WCI  17
$$

IAZ064-065-067-068-078-151500-
   EAST CENTRAL IOWA

CITY           SKY/WX    TMP DP  RH WIND       PRES   REMARKS
DAVENPORT      CLOUDY    25  18  74 W12       30.02S WCI  14
IOWA CITY      CLEAR     24  19  81 W7        30.03S WCI  16
MT. PLEASANT * CLEAR     23  22  96 SW7       30.05R WCI  14
MUSCATINE *    CLEAR     25  21  86 W7        30.04S WCI  17
QUAD CITIES    CLOUDY    28  19  69 SW10      30.01S WCI  19
$$

IAZ062-063-075>077-085>089-095>099-151500-
   SOUTHEAST IOWA

CITY           SKY/WX    TMP DP  RH WIND       PRES   REMARKS
BURLINGTON     CLEAR     26  23  88 W6        30.04S WCI  19
FAIRFIELD *    MOCLDY    27  23  86 SW5       30.04S WCI  21
FORT MADISON * CLEAR     25  23  93 W3        30.06R
KEOKUK *       CLEAR     27  25  93 W6        30.06R WCI  20
OSKALOOSA *    CLOUDY    26  24  94 SW8       30.04S WCI  18
OTTUMWA        CLOUDY    27  23  85 W8        30.04S WCI  19
WASHINGTON *   CLEAR     25  25 100 W8        30.04S WCI  16
$$

ABBREVIATIONS USED IN REMARKS
   TC - TEMPERATURES IN CELSIUS
  WCI - WIND CHILL INDEX
   HX - HEAT INDEX
  VSB - VISIBILITY
$$




USA.gov is the U.S. government's official web portal to all federal, state and local government web resources and services.